This demonstration page uses our WeatherBlox Daily Observations layout. Learn more.

Left ArrowRight Arrow

31.84235, -102.49876

Hourly Observations for March 6, 2018

Temp ( °F °C ) Dew Point ( °F °C ) Humidity (%) Winds ( mph kmh ) Pressure ( in mb ) Visibility ( mi km ) Precip ( " mm )
12:53 am 00:53 Clear 41 5 14 -10 33 33 E 7 11 30.01 1016 10 16 0.00 0.00
1:53 am 01:53 Clear 44 6.7 15 -9.4 31 31 ESE 5 7 30.02 1017 10 16 0.00 0.00
2:53 am 02:53 Clear 44 6.7 16 -8.9 32 32 SE 3 6 30.01 1016 10 16 0.00 0.00
3:53 am 03:53 Clear 39 3.9 16 -8.9 39 39 Calm 30.02 1017 10 16 0.00 0.00
4:53 am 04:53 Clear 39 3.9 16 -8.9 39 39 Calm 30.03 1017 10 16 0.00 0.00
5:53 am 05:53 Clear 37 2.8 16 -8.9 42 42 WNW 5 7 30.05 1018 10 16 0.00 0.00
6:53 am 06:53 Clear 37 2.8 16 -8.9 42 42 NW 6 9 30.08 1019 10 16 0.00 0.00
7:53 am 07:53 Sunny 39 3.9 15 -9.4 38 38 N 7 11 30.11 1020 10 16 0.00 0.00
8:53 am 08:53 Sunny 50 10 16 -8.9 26 26 NNW 8 13 30.13 1020 10 16 0.00 0.00
9:34 am 09:34 Mostly Sunny 55 12.8 -9 -22.8 7 7 N 12 19 30.12 1020 10 16 0.00 0.00
9:53 am 09:53 Mostly Sunny 55 12.8 -10 -23.3 6 6 N 13 20 30.14 1021 10 16 0.00 0.00
10:53 am 10:53 Sunny 56 13.3 -12 -24.4 5 5 N 9 15 30.15 1021 10 16 0.00 0.00
11:53 am 11:53 Sunny 60 15.6 -12 -24.4 5 5 N 9 15 30.14 1021 10 16 0.00 0.00
12:53 pm 12:53 Sunny 64 17.8 -13 -25 4 4 N 8 13 30.12 1020 10 16 0.00 0.00
1:53 pm 13:53 Sunny 66 18.9 -15 -26.1 3 3 N 9 15 30.09 1019 10 16 0.00 0.00
2:53 pm 14:53 Sunny 65 18.3 -17 -27.2 3 3 N 8 13 30.08 1019 10 16 0.00 0.00
3:53 pm 15:53 Sunny 67 19.4 -16 -26.7 3 3 NNW 5 7 30.08 1019 10 16 0.00 0.00
4:53 pm 16:53 Sunny 67 19.4 -14 -25.6 3 3 NNE 7 11 30.07 1018 10 16 0.00 0.00
5:53 pm 17:53 Sunny 64 17.8 -3 -19.4 6 6 ENE 10 17 30.09 1019 10 16 0.00 0.00
6:53 pm 18:53 Clear 58 14.4 4 -15.6 11 11 ENE 12 19 30.14 1021 10 16 0.00 0.00
7:53 pm 19:53 Clear 53 11.7 3 -16.1 13 13 ENE 10 17 30.17 1022 10 16 0.00 0.00
8:53 pm 20:53 Clear 50 10 4 -15.6 15 15 E 12 19 30.18 1022 10 16 0.00 0.00
9:53 pm 21:53 Clear 49 9.4 4 -15.6 16 16 E 8 13 30.19 1023 10 16 0.00 0.00
10:53 pm 22:53 Clear 48 8.9 4 -15.6 16 16 E 9 15 30.20 1023 10 16 0.00 0.00
11:53 pm 23:53 Clear 46 7.8 4 -15.6 17 17 E 10 17 30.20 1023 10 16 0.00 0.00

Powered by AerisWeather